Flood From: 18-02-2018 10:00 Until: 19-02-2018 06:00 warning for: Flood Level: Yellow info button

Although rather usual in this region, locally or potentially dangerous phenomena are expected. (such as local winds, summer thunderstorms, rising streams or high waves) Be aware and pay attention to the latest weather updates, especially if you carry out activities exposed to weather or close to a stream or shoreline. 


Meteo18 Weather Cam more information Meteo18 Weather Cam


Thunder radar more information blitzortung!


Rain radar more information rain snow radar


Visit our other weather sites:

Template documentation
and downloads

And another site



Weather Underground History page Text

Daily Summary for December 4, 2017 Units:  Metric    English   Both
« Previous Day
Next Day »
Daily Weekly Monthly Yearly Custom
  High: Low: Average:
Temperature: -17.8 °C -17.1 °C -15.7 °C
Dew Point: -17.8 °C -17.3 °C -15.9 °C
Humidity: Humidity % 97 % 97 %
Wind Speed: 0 km/h 0 km/h 2.1 km/h
Wind Gust: 0 km/h - -
Wind:- - SW
Pressure: 0 hPa 34923.2 hPa -
Precipitation: 12.7 mm    
Historical Graphs
 
 
Tabular Data for December 4, 2017
Time Temperature Dew Point Pressure Wind Wind Speed Wind Gust Humidity Rainfall Rate (Hourly)
-17.8 °C -17.8 °C 0 hPa Calm     Humidity % 0 mm
00:02 -17.1 °C -17.3 °C 34923.2 hPa West 2.6 km/h 5.1 km/h 97 % 0 mm
00:12 -17.1 °C -17.3 °C 34923.2 hPa Calm   7.7 km/h 97 % 0 mm
00:17 -17.1 °C -17.3 °C 34923.2 hPa Calm   7.7 km/h 97 % 0 mm
00:22 -17 °C -17.2 °C 34933.4 hPa Calm   5.1 km/h 97 % 0 mm
00:32 -17 °C -17.2 °C 34933.4 hPa Calm   5.1 km/h 97 % 0 mm
00:42 -17 °C -17.2 °C 34933.4 hPa Calm   5.1 km/h 97 % 0 mm
00:47 -17 °C -17.2 °C 34933.4 hPa Calm   5.1 km/h 97 % 0 mm
00:52 -16.9 °C -17.2 °C 34933.4 hPa Calm   5.1 km/h 97 % 0 mm
00:57 -16.9 °C -17.2 °C 34933.4 hPa WSW 2.6 km/h 5.1 km/h 97 % 0 mm
01:02 -16.9 °C -17.1 °C 34933.4 hPa Calm   5.1 km/h 97 % 0 mm
01:07 -16.9 °C -17.1 °C 34933.4 hPa Calm   5.1 km/h 97 % 0 mm
01:12 -16.9 °C -17.1 °C 34933.4 hPa Calm   2.6 km/h 97 % 0 mm
01:17 -16.9 °C -17.1 °C 34933.4 hPa Calm     97 % 0 mm
01:22 -16.9 °C -17.1 °C 34933.4 hPa Calm   2.6 km/h 97 % 7.62 mm
01:27 -16.9 °C -17.1 °C 34933.4 hPa Calm   2.6 km/h 97 % 7.62 mm
01:32 -16.8 °C -17.1 °C 34933.4 hPa Calm   2.6 km/h 97 % 7.62 mm
01:37 -16.8 °C -17.1 °C 34933.4 hPa Calm   2.6 km/h 97 % 7.62 mm
01:42 -16.8 °C -17.1 °C 34933.4 hPa SW 2.6 km/h 2.6 km/h 97 % 7.62 mm
01:47 -16.8 °C -17 °C 34933.4 hPa Calm   2.6 km/h 97 % 7.62 mm
01:52 -16.8 °C -17 °C 34933.4 hPa Calm   2.6 km/h 97 % 7.62 mm
01:57 -16.8 °C -17 °C 34933.4 hPa Calm   2.6 km/h 97 % 7.62 mm
02:02 -16.8 °C -17 °C 34933.4 hPa Calm     97 % 7.62 mm
02:07 -16.8 °C -17 °C 34933.4 hPa Calm     97 % 7.62 mm
02:12 -16.8 °C -17 °C 34933.4 hPa Calm     97 % 7.62 mm
02:17 -16.8 °C -17 °C 34933.4 hPa Calm     97 % 7.62 mm
02:22 -16.8 °C -17 °C 34933.4 hPa Calm     97 % 0 mm
02:27 -16.8 °C -17 °C 34946.9 hPa Calm     97 % 0 mm
02:32 -16.8 °C -17 °C 34933.4 hPa Calm     97 % 0 mm
02:37 -16.8 °C -17 °C 34946.9 hPa Calm     97 % 0 mm
02:42 -16.7 °C -16.9 °C 34946.9 hPa Calm     97 % 0 mm
02:47 -16.7 °C -16.9 °C 34946.9 hPa Calm     97 % 0 mm
02:52 -16.7 °C -16.9 °C 34946.9 hPa Calm     97 % 0 mm
02:57 -16.7 °C -16.9 °C 34946.9 hPa Calm     97 % 0 mm
03:02 -16.7 °C -16.9 °C 34946.9 hPa Calm     97 % 0 mm
03:12 -16.7 °C -16.9 °C 34946.9 hPa Calm     97 % 0 mm
03:17 -16.6 °C -16.8 °C 34946.9 hPa Calm     97 % 0 mm
03:22 -16.6 °C -16.8 °C 34946.9 hPa Calm     97 % 0 mm
03:27 -16.6 °C -16.8 °C 34946.9 hPa Calm     97 % 0 mm
03:32 -16.6 °C -16.8 °C 34946.9 hPa Calm     97 % 0 mm
03:37 -16.6 °C -16.8 °C 34946.9 hPa SSW 2.6 km/h   97 % 0 mm
03:42 -16.5 °C -16.7 °C 34946.9 hPa WSW 2.6 km/h 2.6 km/h 97 % 0 mm
03:52 -16.4 °C -16.7 °C 34946.9 hPa Calm   5.1 km/h 97 % 0 mm
03:57 -16.4 °C -16.7 °C 34946.9 hPa WSW 2.6 km/h 5.1 km/h 97 % 7.62 mm
04:02 -16.4 °C -16.7 °C 34946.9 hPa SW 2.6 km/h 5.1 km/h 97 % 7.62 mm
04:07 -16.4 °C -16.7 °C 34946.9 hPa WSW 5.1 km/h 5.1 km/h 97 % 7.62 mm
04:22 -16.4 °C -16.7 °C 34946.9 hPa West 2.6 km/h 10.3 km/h 97 % 7.62 mm
04:27 -16.4 °C -16.6 °C 34946.9 hPa Calm   7.7 km/h 97 % 7.62 mm
04:32 -16.4 °C -16.7 °C 34946.9 hPa SW 2.6 km/h 5.1 km/h 97 % 7.62 mm
04:37 -16.4 °C -16.7 °C 34946.9 hPa Calm   2.6 km/h 97 % 7.62 mm
04:42 -16.4 °C -16.7 °C 34946.9 hPa SSW 2.6 km/h 2.6 km/h 97 % 7.62 mm
04:47 -16.4 °C -16.7 °C 34946.9 hPa Calm   2.6 km/h 97 % 7.62 mm
04:52 -16.4 °C -16.7 °C 34946.9 hPa Calm   2.6 km/h 97 % 7.62 mm
04:57 -16.4 °C -16.7 °C 34946.9 hPa Calm   2.6 km/h 97 % 0 mm
05:02 -16.4 °C -16.7 °C 34946.9 hPa Calm   2.6 km/h 97 % 0 mm
05:07 -16.4 °C -16.7 °C 34946.9 hPa Calm   2.6 km/h 97 % 0 mm
05:12 -16.4 °C -16.6 °C 34946.9 hPa Calm   2.6 km/h 97 % 0 mm
05:17 -16.4 °C -16.6 °C 34957.1 hPa Calm   2.6 km/h 97 % 0 mm
05:22 -16.4 °C -16.7 °C 34957.1 hPa SSW 5.1 km/h 5.1 km/h 97 % 0 mm
05:32 -16.4 °C -16.6 °C 34957.1 hPa SSW 2.6 km/h 5.1 km/h 97 % 0 mm
05:42 -16.3 °C -16.6 °C 34957.1 hPa Calm   5.1 km/h 97 % 7.62 mm
05:47 -16.3 °C -16.6 °C 34957.1 hPa SE 2.6 km/h 2.6 km/h 97 % 7.62 mm
05:52 -16.3 °C -16.6 °C 34957.1 hPa Calm   2.6 km/h 97 % 7.62 mm
05:57 -16.3 °C -16.6 °C 34957.1 hPa Calm   2.6 km/h 97 % 7.62 mm
06:02 -16.3 °C -16.6 °C 34957.1 hPa Calm   2.6 km/h 97 % 7.62 mm
06:12 -16.3 °C -16.6 °C 34957.1 hPa Calm   2.6 km/h 97 % 7.62 mm
06:17 -16.3 °C -16.6 °C 34967.2 hPa Calm   2.6 km/h 97 % 7.62 mm
06:22 -16.3 °C -16.6 °C 34967.2 hPa SW 2.6 km/h 2.6 km/h 97 % 7.62 mm
06:27 -16.3 °C -16.6 °C 34967.2 hPa SW 2.6 km/h 5.1 km/h 97 % 7.62 mm
06:32 -16.3 °C -16.6 °C 34967.2 hPa Calm   5.1 km/h 97 % 7.62 mm
06:37 -16.3 °C -16.6 °C 34967.2 hPa SW 2.6 km/h 5.1 km/h 97 % 7.62 mm
06:42 -16.3 °C -16.5 °C 34967.2 hPa WSW 2.6 km/h 5.1 km/h 97 % 0 mm
06:47 -16.3 °C -16.5 °C 34980.8 hPa Calm   5.1 km/h 97 % 0 mm
06:52 -16.3 °C -16.5 °C 34980.8 hPa Calm   5.1 km/h 97 % 0 mm
06:57 -16.3 °C -16.5 °C 34980.8 hPa Calm   5.1 km/h 97 % 0 mm
07:02 -16.3 °C -16.5 °C 34980.8 hPa Calm   2.6 km/h 97 % 0 mm
07:07 -16.3 °C -16.5 °C 34980.8 hPa Calm   2.6 km/h 97 % 0 mm
07:12 -16.3 °C -16.5 °C 34980.8 hPa Calm   2.6 km/h 97 % 0 mm
07:22 -16.3 °C -16.5 °C 34980.8 hPa SW 2.6 km/h 5.1 km/h 97 % 0 mm
07:27 -16.3 °C -16.5 °C 34980.8 hPa SSW 2.6 km/h 10.3 km/h 97 % 0 mm
07:32 -16.3 °C -16.5 °C 34980.8 hPa SW 7.7 km/h 10.3 km/h 97 % 0 mm
07:37 -16.3 °C -16.5 °C 34980.8 hPa WSW 5.1 km/h 10.3 km/h 97 % 0 mm
07:42 -16.2 °C -16.4 °C 34980.8 hPa SW 5.1 km/h 10.3 km/h 97 % 0 mm
07:47 -16.2 °C -16.4 °C 34990.9 hPa SW 5.1 km/h 10.3 km/h 97 % 0 mm
07:52 -16.2 °C -16.4 °C 34990.9 hPa SW 5.1 km/h 7.7 km/h 97 % 0 mm
07:57 -16.2 °C -16.4 °C 34990.9 hPa West 2.6 km/h 10.3 km/h 97 % 0 mm
08:02 -16.2 °C -16.4 °C 35001.1 hPa West 5.1 km/h 10.3 km/h 97 % 0 mm
08:07 -16.2 °C -16.4 °C 35001.1 hPa WNW 2.6 km/h 10.3 km/h 97 % 0 mm
08:12 -16.2 °C -16.4 °C 35001.1 hPa Calm   10.3 km/h 98 % 0 mm
08:17 -16.2 °C -16.3 °C 35001.1 hPa WSW 5.1 km/h 10.3 km/h 98 % 0 mm
08:22 -16.2 °C -16.3 °C 35001.1 hPa WSW 2.6 km/h 7.7 km/h 98 % 0 mm
08:27 -16.2 °C -16.3 °C 35001.1 hPa SW 2.6 km/h 7.7 km/h 98 % 0 mm
08:32 -16.2 °C -16.3 °C 35001.1 hPa SSW 2.6 km/h 5.1 km/h 98 % 0 mm
08:42 -16.2 °C -16.3 °C 35001.1 hPa SW 5.1 km/h 12.9 km/h 98 % 0 mm
08:47 -16.2 °C -16.3 °C 35001.1 hPa SSW 5.1 km/h 12.9 km/h 98 % 0 mm
08:52 -16.1 °C -16.3 °C 35001.1 hPa SW 7.7 km/h 12.9 km/h 98 % 0 mm
08:57 -16.1 °C -16.3 °C 35014.6 hPa SW 5.1 km/h 12.9 km/h 98 % 0 mm
09:02 -16.1 °C -16.2 °C 35014.6 hPa SW 12.9 km/h 12.9 km/h 98 % 0 mm
09:07 -16.1 °C -16.2 °C 35014.6 hPa WSW 7.7 km/h 15.6 km/h 98 % 0 mm
09:12 -16.1 °C -16.2 °C 35014.6 hPa WSW 2.6 km/h 15.6 km/h 98 % 0 mm
09:22 -16 °C -16.2 °C 35024.8 hPa WSW 2.6 km/h 10.3 km/h 98 % 0 mm
09:27 -16 °C -16.2 °C 35024.8 hPa Calm   10.3 km/h 98 % 0 mm
09:32 -15.9 °C -16.1 °C 35024.8 hPa Calm   10.3 km/h 98 % 0 mm
09:42 -15.9 °C -16.1 °C 35038.3 hPa SSW 2.6 km/h 2.6 km/h 98 % 0 mm
09:47 -15.9 °C -16.1 °C 35038.3 hPa Calm   2.6 km/h 98 % 0 mm
09:57 -15.9 °C -16.1 °C 35038.3 hPa SW 5.1 km/h 12.9 km/h 98 % 0 mm
10:02 -15.9 °C -16.1 °C 35038.3 hPa SW 10.3 km/h 12.9 km/h 98 % 0 mm
10:07 -15.9 °C -16.1 °C 35038.3 hPa SW 2.6 km/h 12.9 km/h 98 % 0 mm
10:12 -15.9 °C -16.1 °C 35038.3 hPa SW 5.1 km/h 12.9 km/h 98 % 0 mm
10:17 -15.9 °C -16.1 °C 35038.3 hPa Calm   12.9 km/h 98 % 0 mm
10:22 -15.8 °C -16 °C 35038.3 hPa SW 2.6 km/h 12.9 km/h 98 % 0 mm
10:27 -15.8 °C -16 °C 35048.5 hPa WSW 2.6 km/h 12.9 km/h 98 % 0 mm
10:32 -15.8 °C -15.9 °C 35048.5 hPa SW 2.6 km/h 10.3 km/h 98 % 0 mm
10:37 -15.8 °C -15.9 °C 35048.5 hPa SW 2.6 km/h 10.3 km/h 98 % 0 mm
10:42 -15.8 °C -15.9 °C 35048.5 hPa SSW 7.7 km/h 10.3 km/h 98 % 0 mm
10:52 -15.7 °C -15.9 °C 35048.5 hPa SW 2.6 km/h 12.9 km/h 98 % 0 mm
10:57 -15.7 °C -15.9 °C 35048.5 hPa SW 5.1 km/h 12.9 km/h 98 % 0 mm
11:02 -15.7 °C -15.9 °C 35058.6 hPa SW 2.6 km/h 12.9 km/h 98 % 0 mm
11:07 -15.7 °C -15.8 °C 35058.6 hPa SW 5.1 km/h 10.3 km/h 98 % 0 mm
11:12 -15.7 °C -15.8 °C 35048.5 hPa SW 2.6 km/h 10.3 km/h 98 % 0 mm
11:17 -15.7 °C -15.8 °C 35058.6 hPa SSW 2.6 km/h 10.3 km/h 98 % 0 mm
11:22 -15.7 °C -15.8 °C 35048.5 hPa South 2.6 km/h 10.3 km/h 98 % 0 mm
11:27 -15.6 °C -15.8 °C 35048.5 hPa SW 7.7 km/h 7.7 km/h 98 % 0 mm
11:32 -15.6 °C -15.8 °C 35058.6 hPa SSW 7.7 km/h 10.3 km/h 98 % 0 mm
11:37 -15.6 °C -15.8 °C 35048.5 hPa SW 7.7 km/h 10.3 km/h 98 % 0 mm
11:42 -15.6 °C -15.7 °C 35048.5 hPa SW 7.7 km/h 10.3 km/h 98 % 0 mm
11:47 -15.6 °C -15.7 °C 35048.5 hPa SSW 5.1 km/h 18.2 km/h 98 % 0 mm
11:52 -15.6 °C -15.7 °C 35048.5 hPa SSW 10.3 km/h 18.2 km/h 98 % 0 mm
11:57 -15.5 °C -15.7 °C 35048.5 hPa SW 5.1 km/h 18.2 km/h 98 % 0 mm
12:02 -15.5 °C -15.7 °C 35048.5 hPa SSW 5.1 km/h 12.9 km/h 98 % 0 mm
12:12 -15.4 °C -15.6 °C 35048.5 hPa SW 2.6 km/h 18.2 km/h 98 % 0 mm
12:17 -15.4 °C -15.6 °C 35048.5 hPa WSW 7.7 km/h 15.6 km/h 98 % 0 mm
12:22 -15.4 °C -15.6 °C 35048.5 hPa Calm   15.6 km/h 98 % 0 mm
12:27 -15.3 °C -15.5 °C 35048.5 hPa SW 7.7 km/h 15.6 km/h 98 % 0 mm
12:32 -15.3 °C -15.5 °C 35048.5 hPa SSW 12.9 km/h 15.6 km/h 98 % 0 mm
12:37 -15.3 °C -15.5 °C 35048.5 hPa SSW 10.3 km/h 15.6 km/h 98 % 0 mm
12:47 -15.3 °C -15.5 °C 35048.5 hPa SW 7.7 km/h 20.8 km/h 98 % 0 mm
12:52 -15.3 °C -15.5 °C 35048.5 hPa SW 5.1 km/h 20.8 km/h 98 % 0 mm
12:57 -15.3 °C -15.5 °C 35048.5 hPa SW 7.7 km/h 15.6 km/h 98 % 0 mm
13:02 -15.3 °C -15.4 °C 35048.5 hPa SW 7.7 km/h 15.6 km/h 98 % 0 mm
13:07 -15.3 °C -15.4 °C 35048.5 hPa Calm   15.6 km/h 98 % 0 mm
13:12 -15.2 °C -15.4 °C 35048.5 hPa WSW 7.7 km/h 15.6 km/h 98 % 0 mm
13:17 -15.2 °C -15.3 °C 35048.5 hPa WSW 7.7 km/h 15.6 km/h 98 % 0 mm
13:22 -15.1 °C -15.3 °C 35048.5 hPa West 5.1 km/h 15.6 km/h 98 % 0 mm
13:27 -15.1 °C -15.2 °C 35048.5 hPa WSW 7.7 km/h 15.6 km/h 98 % 0 mm
13:32 -15.1 °C -15.2 °C 35048.5 hPa SW 5.1 km/h 15.6 km/h 98 % 0 mm
13:37 -14.9 °C -15.1 °C 35048.5 hPa SW 7.7 km/h 15.6 km/h 98 % 0 mm
13:42 -14.9 °C -15.1 °C 35048.5 hPa Calm   15.6 km/h 98 % 0 mm
13:47 -14.9 °C -15.1 °C 35048.5 hPa West 2.6 km/h 10.3 km/h 98 % 0 mm
13:52 -14.9 °C -15.1 °C 35038.3 hPa Calm   7.7 km/h 98 % 0 mm
13:57 -14.8 °C -15 °C 35048.5 hPa WSW 7.7 km/h 10.3 km/h 98 % 0 mm
14:02 -14.8 °C -15 °C 35048.5 hPa West 7.7 km/h 12.9 km/h 98 % 0 mm
14:12 -14.8 °C -14.9 °C 35048.5 hPa West 2.6 km/h 12.9 km/h 98 % 0 mm
14:17 -14.7 °C -14.9 °C 35048.5 hPa Calm   10.3 km/h 98 % 0 mm
14:22 -14.7 °C -14.8 °C 35048.5 hPa Calm   7.7 km/h 98 % 0 mm
14:27 -14.7 °C -14.8 °C 35038.3 hPa Calm   7.7 km/h 98 % 0 mm
14:32 -14.6 °C -14.8 °C 35038.3 hPa Calm   5.1 km/h 98 % 0 mm
14:42 -14.6 °C -14.8 °C 35048.5 hPa Calm   5.1 km/h 98 % 0 mm
14:47 -14.6 °C -14.8 °C 35048.5 hPa SSW 5.1 km/h 7.7 km/h 98 % 0 mm
14:52 -14.7 °C -14.8 °C 35048.5 hPa Calm   7.7 km/h 98 % 0 mm
14:57 -14.6 °C -14.8 °C 35048.5 hPa SW 10.3 km/h 10.3 km/h 98 % 0 mm
15:02 -14.6 °C -14.8 °C 35048.5 hPa SW 5.1 km/h 10.3 km/h 98 % 0 mm
15:07 -14.7 °C -14.8 °C 35048.5 hPa SW 10.3 km/h 10.3 km/h 98 % 0 mm
15:12 -14.7 °C -14.8 °C 35048.5 hPa SSW 7.7 km/h 12.9 km/h 98 % 0 mm
15:17 -14.7 °C -14.8 °C 35048.5 hPa SW 2.6 km/h 12.9 km/h 98 % 0 mm
15:22 -14.7 °C -14.8 °C 35048.5 hPa SW 7.7 km/h 12.9 km/h 98 % 0 mm
15:27 -14.7 °C -14.8 °C 35048.5 hPa WSW 7.7 km/h 12.9 km/h 98 % 0 mm
15:32 -14.7 °C -14.8 °C 35048.5 hPa West 7.7 km/h 12.9 km/h 98 % 0 mm
15:37 -14.7 °C -14.9 °C 35058.6 hPa West 7.7 km/h 12.9 km/h 98 % 0 mm
15:42 -14.7 °C -14.9 °C 35058.6 hPa WSW 7.7 km/h 12.9 km/h 98 % 0 mm
15:47 -14.7 °C -14.9 °C 35058.6 hPa West 5.1 km/h 12.9 km/h 98 % 0 mm
15:52 -14.7 °C -14.9 °C 35058.6 hPa West 7.7 km/h 12.9 km/h 98 % 0 mm
16:02 -14.7 °C -14.9 °C 35058.6 hPa West 5.1 km/h 12.9 km/h 98 % 0 mm
16:12 -14.8 °C -14.9 °C 35058.6 hPa WSW 5.1 km/h 12.9 km/h 98 % 0 mm
16:17 -14.8 °C -14.9 °C 35058.6 hPa Calm   12.9 km/h 98 % 0 mm
16:22 -14.8 °C -14.9 °C 35058.6 hPa SSW 2.6 km/h 10.3 km/h 98 % 0 mm
16:27 -14.7 °C -14.9 °C 35058.6 hPa WSW 2.6 km/h 10.3 km/h 98 % 0 mm
16:32 -14.7 °C -14.9 °C 35058.6 hPa Calm   10.3 km/h 98 % 0 mm
16:42 -14.7 °C -14.9 °C 35072.2 hPa Calm   7.7 km/h 98 % 0 mm
16:47 -14.7 °C -14.9 °C 35072.2 hPa Calm   2.6 km/h 98 % 0 mm
16:52 -14.7 °C -14.9 °C 35072.2 hPa Calm   2.6 km/h 98 % 0 mm
17:02 -14.7 °C -14.8 °C 35072.2 hPa WNW 5.1 km/h 5.1 km/h 98 % 0 mm
17:07 -14.7 °C -14.8 °C 35072.2 hPa WNW 5.1 km/h 7.7 km/h 98 % 0 mm
17:12 -14.7 °C -14.8 °C 35072.2 hPa WNW 2.6 km/h 7.7 km/h 98 % 0 mm
17:17 -14.7 °C -14.8 °C 35072.2 hPa Calm   7.7 km/h 98 % 0 mm
17:22 -14.7 °C -14.8 °C 35072.2 hPa Calm   5.1 km/h 98 % 0 mm
17:32 -14.7 °C -14.8 °C 35082.3 hPa West 2.6 km/h 7.7 km/h 98 % 0 mm
17:37 -14.7 °C -14.8 °C 35082.3 hPa Calm   7.7 km/h 98 % 0 mm
17:47 -14.7 °C -14.8 °C 35082.3 hPa Calm   5.1 km/h 98 % 0 mm
17:52 -14.7 °C -14.8 °C 35082.3 hPa Calm   2.6 km/h 98 % 0 mm
17:57 -14.7 °C -14.8 °C 35082.3 hPa Calm   5.1 km/h 98 % 0 mm
18:02 -14.7 °C -14.8 °C 35095.9 hPa Calm   5.1 km/h 98 % 0 mm
18:07 -14.7 °C -14.8 °C 35095.9 hPa Calm   5.1 km/h 98 % 0 mm
18:12 -14.7 °C -14.8 °C 35095.9 hPa Calm   2.6 km/h 98 % 0 mm
18:17 -14.7 °C -14.8 °C 35095.9 hPa Calm   2.6 km/h 98 % 0 mm
18:22 -14.7 °C -14.8 °C 35095.9 hPa Calm   2.6 km/h 98 % 0 mm
18:32 -14.7 °C -14.8 °C 35095.9 hPa Calm   5.1 km/h 98 % 0 mm
18:42 -14.8 °C -14.9 °C 35095.9 hPa Calm   5.1 km/h 98 % 0 mm
18:47 -14.8 °C -14.9 °C 35095.9 hPa West 2.6 km/h 5.1 km/h 98 % 0 mm
18:57 -14.8 °C -15 °C 35095.9 hPa Calm   7.7 km/h 98 % 0 mm
19:02 -14.9 °C -15.1 °C 35095.9 hPa Calm   5.1 km/h 98 % 0 mm
19:07 -14.9 °C -15.1 °C 35095.9 hPa Calm   2.6 km/h 98 % 0 mm
19:12 -14.9 °C -15.1 °C 35106 hPa Calm   2.6 km/h 98 % 0 mm
19:17 -14.9 °C -15.1 °C 35106 hPa Calm     98 % 0 mm
19:27 -14.9 °C -15.1 °C 35106 hPa Calm     98 % 0 mm
19:32 -14.9 °C -15.1 °C 35116.2 hPa Calm     98 % 0 mm
19:37 -14.9 °C -15.1 °C 35116.2 hPa Calm     98 % 0 mm
19:42 -14.9 °C -15.1 °C 35116.2 hPa Calm     98 % 0 mm
19:47 -14.9 °C -15.1 °C 35116.2 hPa Calm   2.6 km/h 98 % 0 mm
19:52 -14.9 °C -15.1 °C 35116.2 hPa Calm   2.6 km/h 98 % 0 mm
20:02 -14.9 °C -15.1 °C 35116.2 hPa Calm   2.6 km/h 98 % 0 mm
20:07 -14.9 °C -15.1 °C 35129.8 hPa Calm   5.1 km/h 98 % 0 mm
20:12 -14.9 °C -15.1 °C 35116.2 hPa Calm   5.1 km/h 98 % 0 mm
20:17 -14.9 °C -15.1 °C 35116.2 hPa Calm   5.1 km/h 98 % 0 mm
20:22 -14.9 °C -15.1 °C 35129.8 hPa Calm   2.6 km/h 98 % 0 mm
20:27 -14.9 °C -15.1 °C 35129.8 hPa Calm   5.1 km/h 98 % 0 mm
20:32 -14.9 °C -15.1 °C 35116.2 hPa Calm   5.1 km/h 98 % 0 mm
20:37 -14.9 °C -15.1 °C 35116.2 hPa Calm   5.1 km/h 98 % 0 mm
20:42 -14.9 °C -15.1 °C 35116.2 hPa Calm   5.1 km/h 98 % 0 mm
20:47 -14.9 °C -15.1 °C 35116.2 hPa Calm   2.6 km/h 98 % 0 mm
20:52 -14.9 °C -15.1 °C 35116.2 hPa Calm   2.6 km/h 98 % 0 mm
21:02 -15 °C -15.2 °C 35116.2 hPa Calm     98 % 0 mm
21:12 -15.2 °C -15.3 °C 35129.8 hPa Calm     98 % 0 mm
21:17 -15.3 °C -15.4 °C 35129.8 hPa Calm     98 % 0 mm
21:22 -15.4 °C -15.6 °C 35129.8 hPa Calm     98 % 0 mm
21:27 -15.4 °C -15.7 °C 35129.8 hPa Calm     97 % 0 mm
21:32 -15.4 °C -15.6 °C 35129.8 hPa Calm     98 % 0 mm
21:42 -15.5 °C -15.7 °C 35129.8 hPa Calm     98 % 0 mm
21:47 -15.6 °C -15.8 °C 35139.9 hPa Calm     98 % 0 mm
21:52 -15.7 °C -15.8 °C 35139.9 hPa Calm     98 % 0 mm
21:57 -15.7 °C -15.9 °C 35139.9 hPa Calm     97 % 0 mm
22:02 -15.8 °C -15.9 °C 35139.9 hPa Calm     98 % 0 mm
22:07 -15.8 °C -15.9 °C 35139.9 hPa Calm     98 % 0 mm
22:12 -15.8 °C -16 °C 35139.9 hPa Calm     98 % 0 mm
22:17 -15.9 °C -16.1 °C 35139.9 hPa Calm     98 % 0 mm
22:22 -15.9 °C -16.1 °C 35139.9 hPa Calm     98 % 0 mm
22:27 -15.9 °C -16.1 °C 35139.9 hPa Calm     98 % 0 mm
22:32 -15.9 °C -16.1 °C 35139.9 hPa Calm     98 % 0 mm
22:42 -15.9 °C -16.1 °C 35139.9 hPa Calm   2.6 km/h 98 % 0 mm
22:47 -15.9 °C -16.1 °C 35139.9 hPa Calm   2.6 km/h 98 % 0 mm
22:52 -15.9 °C -16.1 °C 35139.9 hPa Calm   2.6 km/h 98 % 0 mm
23:02 -15.8 °C -15.9 °C 35139.9 hPa Calm   2.6 km/h 98 % 0 mm
23:07 -15.8 °C -16 °C 35150.1 hPa Calm   2.6 km/h 98 % 0 mm
23:12 -15.8 °C -16 °C 35150.1 hPa Calm   2.6 km/h 98 % 0 mm
23:17 -15.8 °C -16 °C 35150.1 hPa Calm   2.6 km/h 98 % 0 mm
23:22 -15.8 °C -16 °C 35150.1 hPa WNW 2.6 km/h 2.6 km/h 98 % 0 mm
23:27 -15.8 °C -15.9 °C 35150.1 hPa Calm   2.6 km/h 98 % 0 mm
23:32 -15.8 °C -15.9 °C 35150.1 hPa Calm   2.6 km/h 98 % 0 mm
23:37 -15.8 °C -15.9 °C 35150.1 hPa Calm   2.6 km/h 98 % 0 mm
23:42 -15.7 °C -15.9 °C 35150.1 hPa WNW 2.6 km/h 2.6 km/h 98 % 0 mm
23:47 -15.7 °C -15.9 °C 35150.1 hPa Calm   2.6 km/h 98 % 0 mm
23:52 -15.8 °C -15.9 °C 35150.1 hPa Calm   2.6 km/h 98 % 0 mm
23:57 -15.7 °C -15.9 °C 35150.1 hPa SW 2.6 km/h 2.6 km/h 98 % 0 mm
Meteo18
Compliments of Weather Underground - 4 mb

Script developed by  Jim McMurry - jmcmurry@mwt.net Adapted for the template by  Wim van der Kuil - Leuven-Template.eu

You find our weather info also at:

European Weather Network

Weather Underground

Equipment we use:

Weather-station
Davis Vue

Weather-program
Meteobridge

Weather-server
Raspberry PI 2 B+

Provider
1 and 1

Davis Vue

Meteobridge

Raspberry PI 2 B+

1 and 1